(175116) = 2004 RL252 = 2001 LY11 = 2004 QL26

Discovered at Socorro on 2004-09-15 by LINEAR.

Orbit

Orbit type: Hungaria

Note: WebGL enabled browser required.

epoch2024-03-31.0
epoch JD2460400.5
perihelion date2023-05-20.35173
perihelion JD2460084.85173
argument of perihelion (°)59.14191
ascending node (°)265.76381
inclination (°)18.01348
eccentricity0.0832786
perihelion distance (AU)1.7831110
Tisserand w.r.t. Jupiter3.8
ΔV w.r.t. Earth (km/sec)10.0
semimajor axis (AU)1.9450959
mean anomaly (°)114.68212
mean daily motion (°/day)0.36332250
aphelion distance (AU)2.107
period (years)2.71
P-vector [x]0.77624464
P-vector [y]-0.63022609
P-vector [z]0.01610411
Q-vector [x]0.54985107
Q-vector [y]0.68930137
Q-vector [z]0.47172813
absolute magnitude16.81
phase slope0.15
uncertainty0
referenceMPEC 2024-F74
observations used669
oppositions16
arc length (days)9905
first opposition used1997
last opposition used2024
residual rms (arc-secs)0.68
perturbers coarse indicatorM-v
perturbers precise indicator003Ek
first observation date used1997-02-04.0
last observation date used2024-03-19.0
computer nameMPCLINUX
Minimum Orbit Intersection Distances (in AU)
for orbit epoch: 2460400.5, reference: E2024-F74
Mercury1.37141
Venus1.09474
Earth0.81009
Mars0.38726
Jupiter3.08445
Saturn7.00081
Uranus16.4558
Neptune27.9328

Observations

689 total observations over interval: 1997 02 04.09821 – 2024 03 19.54780
These data are available for download (format description).

Date (UT) J2000 RA J2000 Dec Magn Location Ref
1997 02 04.09821 03 35 49.51 +19 42 31.9 20.6 V 691 – Steward Observatory, Kitt Peak-Spacewatch MPS 118463
1997 02 04.12068 03 35 51.06 +19 42 26.0 20.9 V 691 – Steward Observatory, Kitt Peak-Spacewatch MPS 118463
1997 02 04.14301 03 35 52.54 +19 42 19.9 20.8 V 691 – Steward Observatory, Kitt Peak-Spacewatch MPS 118463
1999 12 14.33184 07 53 09.95 +12 01 18.9 18.9   704 – Lincoln Laboratory ETS, New Mexico MPS 118463
1999 12 14.34657 07 53 09.20 +12 01 10.9 18.9   704 – Lincoln Laboratory ETS, New Mexico MPS 118463
1999 12 14.36157 07 53 08.56 +12 01 01.3 18.9   704 – Lincoln Laboratory ETS, New Mexico MPS 118463
2001 06 15.35690 20 53 38.95 -03 42 38.3 19.3   704 – Lincoln Laboratory ETS, New Mexico MPS 31835
2001 06 15.36870 20 53 38.75 -03 42 23.9 19.6   704 – Lincoln Laboratory ETS, New Mexico MPS 31835
2001 06 15.38144 20 53 38.70 -03 42 10.2 19.3   704 – Lincoln Laboratory ETS, New Mexico MPS 31835
2001 06 15.39322 20 53 38.60 -03 41 55.7 19.5   704 – Lincoln Laboratory ETS, New Mexico MPS 31835
2001 06 21.40710 20 52 18.14 -01 45 12.3 18.3   704 – Lincoln Laboratory ETS, New Mexico MPS 31835
2001 06 21.41954 20 52 17.89 -01 44 57.9 19.2   704 – Lincoln Laboratory ETS, New Mexico MPS 31835
2001 06 21.43199 20 52 17.61 -01 44 42.8 18.9   704 – Lincoln Laboratory ETS, New Mexico MPS 31835
2003 02 09.36305 10 10 59.46 -20 14 58.5 20.5   644 – Palomar Mountain/NEAT MPS 118463
2003 02 09.39241 10 10 57.31 -20 15 05.6 20.5   644 – Palomar Mountain/NEAT MPS 118463
2003 02 09.41781 10 10 55.44 -20 15 11.8 20.2   644 – Palomar Mountain/NEAT MPS 118463
2004 08 27.35640 01 34 19.96 +40 33 55.0 20.1   704 – Lincoln Laboratory ETS, New Mexico MPC 54932
2004 08 27.36675 01 34 20.18 +40 34 01.9 19.5   704 – Lincoln Laboratory ETS, New Mexico MPC 54932
2004 08 27.37713 01 34 20.27 +40 34 10.3 19.8   704 – Lincoln Laboratory ETS, New Mexico MPC 54932
2004 09 15.29463 01 33 26.76 +43 24 15.0 19.1   704 – Lincoln Laboratory ETS, New Mexico MPS 113296
2004 09 15.30665 01 33 26.34 +43 24 19.0 19.5   704 – Lincoln Laboratory ETS, New Mexico MPS 113296
2004 09 15.31830 01 33 26.03 +43 24 22.5 19.2   704 – Lincoln Laboratory ETS, New Mexico MPS 113296
2004 09 15.33006 01 33 25.66 +43 24 26.7 19.8   704 – Lincoln Laboratory ETS, New Mexico MPS 113296
2004 09 15.34171 01 33 25.28 +43 24 31.1 19.5   704 – Lincoln Laboratory ETS, New Mexico MPS 113296
2004 09 16.33716 01 32 56.45 +43 29 33.2 19.2   704 – Lincoln Laboratory ETS, New Mexico MPS 113296
2004 09 16.34875 01 32 55.93 +43 29 36.5 19.8   704 – Lincoln Laboratory ETS, New Mexico MPS 113296
2004 09 16.36034 01 32 55.64 +43 29 40.5 19.4   704 – Lincoln Laboratory ETS, New Mexico MPS 113296
2004 09 16.37192 01 32 55.22 +43 29 43.5 19.7   704 – Lincoln Laboratory ETS, New Mexico MPS 113296
2004 09 16.38350 01 32 54.86 +43 29 46.5 19.4   704 – Lincoln Laboratory ETS, New Mexico MPS 113296
2004 09 17.35032 01 32 24.49 +43 34 12.7 18.7   704 – Lincoln Laboratory ETS, New Mexico MPS 113296
2004 09 17.36263 01 32 24.00 +43 34 17.1 19.4   704 – Lincoln Laboratory ETS, New Mexico MPS 113296
2004 09 17.37502 01 32 23.56 +43 34 19.3 19.7   704 – Lincoln Laboratory ETS, New Mexico MPS 113296
2004 09 17.38718 01 32 23.10 +43 34 22.3 19.7   704 – Lincoln Laboratory ETS, New Mexico MPS 113296
2004 09 17.39928 01 32 22.65 +43 34 25.4 19.7   704 – Lincoln Laboratory ETS, New Mexico MPS 113296
2004 09 21.35628 01 29 53.32 +43 47 37.6 19.7   704 – Lincoln Laboratory ETS, New Mexico MPS 114557
2004 09 21.35657 01 29 53.28 +43 47 37.1 19.2   704 – Lincoln Laboratory ETS, New Mexico MPS 114557
2004 09 21.36902 01 29 52.72 +43 47 40.5 19.7   704 – Lincoln Laboratory ETS, New Mexico MPS 114557
2004 09 21.36930 01 29 52.67 +43 47 39.2 19.6   704 – Lincoln Laboratory ETS, New Mexico MPS 114557
2004 09 21.38117 01 29 52.15 +43 47 41.5 19.8   704 – Lincoln Laboratory ETS, New Mexico MPS 114557
2004 09 21.38146 01 29 52.03 +43 47 40.1 20.2   704 – Lincoln Laboratory ETS, New Mexico MPS 114557
2004 09 21.39405 01 29 51.44 +43 47 39.7 20.2   704 – Lincoln Laboratory ETS, New Mexico MPS 114557
2004 09 21.39433 01 29 51.47 +43 47 42.4 19.4   704 – Lincoln Laboratory ETS, New Mexico MPS 114557
2004 09 21.40618 01 29 50.74 +43 47 42.6 19.9   704 – Lincoln Laboratory ETS, New Mexico MPS 114557
2004 09 21.40651 01 29 50.92 +43 47 43.9 19.5   704 – Lincoln Laboratory ETS, New Mexico MPS 114557
2004 09 22.35807 01 29 09.64 +43 49 40.6 19.0 C 704 – Lincoln Laboratory ETS, New Mexico MPS 289777
2004 09 22.37024 01 29 09.04 +43 49 42.2 18.9 C 704 – Lincoln Laboratory ETS, New Mexico MPS 289777
2004 09 22.38242 01 29 08.47 +43 49 43.0 19.2 C 704 – Lincoln Laboratory ETS, New Mexico MPS 289777
2004 09 22.39458 01 29 07.97 +43 49 45.2 18.6 C 704 – Lincoln Laboratory ETS, New Mexico MPS 289777
2004 09 22.40698 01 29 07.29 +43 49 45.8 18.9 C 704 – Lincoln Laboratory ETS, New Mexico MPS 289777
2004 10 23.11972 00 57 29.00 +40 06 00.6 18.6 R 699 – Lowell Observatory-LONEOS MPS 118463
2004 10 23.13193 00 57 28.09 +40 05 48.6   699 – Lowell Observatory-LONEOS MPS 118463
2004 10 23.14415 00 57 27.43 +40 05 38.8   699 – Lowell Observatory-LONEOS MPS 118463
2004 10 23.15636 00 57 26.71 +40 05 27.2   699 – Lowell Observatory-LONEOS MPS 118463
2004 11 04.19663 00 48 15.14 +36 28 21.8 18.5   704 – Lincoln Laboratory ETS, New Mexico MPS 118463
2004 11 04.20872 00 48 14.70 +36 28 06.4 19.6   704 – Lincoln Laboratory ETS, New Mexico MPS 118463
2004 11 04.22077 00 48 14.25 +36 27 53.6 19.0   704 – Lincoln Laboratory ETS, New Mexico MPS 118463
2004 11 04.23282 00 48 13.79 +36 27 38.7 19.2   704 – Lincoln Laboratory ETS, New Mexico MPS 118463
2004 11 04.24483 00 48 13.45 +36 27 23.5 19.3   704 – Lincoln Laboratory ETS, New Mexico MPS 118463
2004 11 10.23553 00 45 47.30 +34 28 10.3 19.4   704 – Lincoln Laboratory ETS, New Mexico MPS 119293
2004 11 10.25927 00 45 46.89 +34 27 39.2 19.4   704 – Lincoln Laboratory ETS, New Mexico MPS 119293
2004 11 10.27114 00 45 46.71 +34 27 24.4 19.6   704 – Lincoln Laboratory ETS, New Mexico MPS 119293
2006 05 04.61277 12 53 01.42 -35 15 56.0 19.5 V E12 – Siding Spring Survey MPS 170835
2006 05 04.62183 12 53 01.03 -35 15 46.7 18.8 V E12 – Siding Spring Survey MPS 170835
2006 05 04.63085 12 53 00.67 -35 15 38.0 19.6 V E12 – Siding Spring Survey MPS 170835
2006 05 04.63997 12 53 00.20 -35 15 28.5 19.1 V E12 – Siding Spring Survey MPS 170835
2007 11 07.38502 06 32 17.95 +29 40 26.8 19.4   704 – Lincoln Laboratory ETS, New Mexico MPS 224855
2007 11 07.39734 06 32 17.84 +29 40 22.6 19.8   704 – Lincoln Laboratory ETS, New Mexico MPS 224855
2007 11 07.40969 06 32 17.56 +29 40 16.9 19.9   704 – Lincoln Laboratory ETS, New Mexico MPS 224855
2007 11 07.42205 06 32 17.43 +29 40 10.6 20.1   704 – Lincoln Laboratory ETS, New Mexico MPS 224855
2007 11 07.43457 06 32 17.33 +29 40 06.9 20.0   704 – Lincoln Laboratory ETS, New Mexico MPS 224855
2007 11 18.34631 06 27 27.79 +28 12 10.5 19.2   704 – Lincoln Laboratory ETS, New Mexico MPS 228276
2007 11 18.37151 06 27 26.79 +28 11 57.1 19.8   704 – Lincoln Laboratory ETS, New Mexico MPS 228276
2007 11 18.38413 06 27 26.11 +28 11 50.9 19.5   704 – Lincoln Laboratory ETS, New Mexico MPS 228276
2007 11 18.39683 06 27 25.48 +28 11 42.7 19.8   704 – Lincoln Laboratory ETS, New Mexico MPS 228276
2007 12 03.24670 06 12 25.55 +25 44 26.5 20.3 V 691 – Steward Observatory, Kitt Peak-Spacewatch MPS 229806
2007 12 03.26778 06 12 23.90 +25 44 13.4 19.2 V 691 – Steward Observatory, Kitt Peak-Spacewatch MPS 229806
2007 12 03.28541 06 12 22.46 +25 44 02.0 19.1 V 691 – Steward Observatory, Kitt Peak-Spacewatch MPS 229806
2007 12 10.26246 06 02 49.87 +24 23 55.0 19.2   704 – Lincoln Laboratory ETS, New Mexico MPS 230926
2007 12 10.27533 06 02 48.75 +24 23 46.4 19.0   704 – Lincoln Laboratory ETS, New Mexico MPS 230926
2007 12 10.30139 06 02 46.34 +24 23 27.3 19.4   704 – Lincoln Laboratory ETS, New Mexico MPS 230926
2007 12 10.31452 06 02 45.23 +24 23 19.3 19.3   704 – Lincoln Laboratory ETS, New Mexico MPS 230926
2007 12 14.27412 05 56 58.15 +23 35 28.0 19.3   704 – Lincoln Laboratory ETS, New Mexico MPS 230926
2007 12 14.28704 05 56 57.01 +23 35 18.2 19.7   704 – Lincoln Laboratory ETS, New Mexico MPS 230926
2007 12 14.29996 05 56 55.90 +23 35 07.8 20.2   704 – Lincoln Laboratory ETS, New Mexico MPS 230926
2007 12 14.31289 05 56 54.69 +23 34 59.5 19.5   704 – Lincoln Laboratory ETS, New Mexico MPS 230926
2008 01 11.25590 05 21 08.71 +18 04 47.3 19.2 V G96 – Mt. Lemmon Survey MPS 233391
